Regional Weather Roundup
Issued by NWS

Home | Current Version | Previous Version | Graphics & Text | Print | Product List | Glossary Off
Versions: 1 2 3 4 5 6 7 8 9 10 11 12 13 14 15 16 17 18 19 20 21 22 23 24 25 26 27 28 29 30 31 32 33 34 35 36 37 38 39 40 41 42 43 44 45 46 47 48 49 50

000
ASUS43 KFSD 211302
RWRSD

WEATHER ROUNDUP FOR SOUTH DAKOTA
NATIONAL WEATHER SERVICE SIOUX FALLS SD
800 AM CDT THU AUG 21 2014

NOTE: "FAIR" INDICATES FEW OR NO CLOUDS BELOW 12,000 FEET WITH NO
SIGNIFICANT WEATHER AND/OR OBSTRUCTIONS TO VISIBILITY.


SDZ001>005-009-010-012>017-211400-
NORTHWEST AND NORTH CENTRAL SOUTH DAKOTA

CITY           SKY/WX    TMP DP  RH WIND       PRES   REMARKS
BUFFALO          N/A     59  55  87 NW10      29.86R
FAITH            N/A     62  59  90 NW8       29.89R
MOBRIDGE       CLOUDY    66  66 100 NW12      29.79R FOG
$$

SDZ012>016-024>037-041>051-057-063-072>074-211400-
SOUTHWEST AND SOUTH CENTRAL SOUTH DAKOTA

CITY           SKY/WX    TMP DP  RH WIND       PRES   REMARKS
RAPID CTY ARPT MOCLDY    63  60  90 CALM      29.93R
PIERRE         SUNNY     66  65  96 NW9       29.81R
CUSTER         PTCLDY    59  52  77 NW3       30.05R
ELLSWORTH AFB  MOCLDY    64  61  89 CALM      29.93R
PHILIP         MOSUNNY   63  60  90 NW8       29.87R
PINE RIDGE     MOCLDY    58  57  97 CALM      29.95R
WINNER         CLOUDY    69  67  93 NW12      29.84R
$$

SDZ004>011-016>023-039-040-211400-
NORTHEAST SOUTH DAKOTA

CITY           SKY/WX    TMP DP  RH WIND       PRES   REMARKS
ABERDEEN       SUNNY     66  65  96 SW8       29.77R
WATERTOWN      MOSUNNY   68  66  93 S3        29.77S
SISSETON         N/A     69  68  96 S8        29.73S
$$

SDZ017-020-022-023-036>040-048>070-211400-
SOUTHEAST SOUTH DAKOTA

CITY           SKY/WX    TMP DP  RH WIND       PRES   REMARKS
SIOUX FALLS    CLOUDY    73  71  93 CALM      29.77R
HURON          MOSUNNY   69  66  90 NW7       29.77R
CHAMBERLAIN    PTSUNNY   68  67  95 N6        29.81R
MITCHELL       CLOUDY    72  72 100 NW6       29.76R FOG
YANKTON        CLOUDY    75  66  73 SW8       29.76R
$$

ABBREVIATIONS USED IN REMARKS
   TC - TEMPERATURE IN CELSIUS
  WCI - WIND CHILL INDEX
   HX - HEAT INDEX
  VSB - VISIBILITY




USA.gov is the U.S. government's official web portal to all federal, state and local government web resources and services.